Time,TemperatureF,DewpointF,PressureIn,WindDirection,WindDirectionDegrees,WindSpeedMPH,WindSpeedGustMPH,Humidity,HourlyPrecipIn,Conditions,Clouds,dailyrainin,SoftwareType,DateUTC
2013-08-10 00:53:00,69.0,65.0,-100.00,ENE,65,0.0,0.0,87,0.00,,,-99.99,,2013-08-10 04:53:00,
2013-08-10 01:11:00,69.0,65.0,-100.00,SSE,150,0.0,1.0,88,0.00,,,-99.99,,2013-08-10 05:11:00,
2013-08-10 01:22:00,69.0,65.0,-100.00,SSW,205,0.0,1.0,87,0.00,,,-99.99,,2013-08-10 05:22:00,
2013-08-10 01:32:00,69.0,65.0,-100.00,SSE,160,0.0,1.0,87,0.00,,,-99.99,,2013-08-10 05:32:00,
2013-08-10 01:43:00,69.0,65.0,-100.00,South,170,0.0,1.0,87,0.00,,,-99.99,,2013-08-10 05:43:00,
2013-08-10 02:02:00,69.0,65.0,-100.00,SE,130,0.0,0.0,88,0.00,,,-99.99,,2013-08-10 06:02:00,
2013-08-10 02:44:00,68.0,65.0,-100.00,SE,135,0.0,1.0,89,0.00,,,-99.99,,2013-08-10 06:44:00,
2013-08-10 03:02:00,68.0,65.0,-100.00,North,5,0.0,2.0,90,0.00,,,-99.99,,2013-08-10 07:02:00,
2013-08-10 03:13:00,67.0,65.0,-100.00,SE,130,0.0,1.0,91,0.00,,,-99.99,,2013-08-10 07:13:00,
2013-08-10 03:22:00,67.0,65.0,-100.00,SE,130,0.0,1.0,91,0.00,,,-99.99,,2013-08-10 07:22:00,
2013-08-10 03:33:00,67.0,65.0,-100.00,East,80,0.0,0.0,90,0.00,,,-99.99,,2013-08-10 07:33:00,
2013-08-10 03:43:00,67.0,65.0,-100.00,North,0,0.0,1.0,90,0.00,,,-99.99,,2013-08-10 07:43:00,
2013-08-10 03:52:00,67.0,64.0,-100.00,North,0,0.0,0.0,91,0.00,,,-99.99,,2013-08-10 07:52:00,
2013-08-10 04:01:00,67.0,65.0,-100.00,West,260,0.0,0.0,91,0.00,,,-99.99,,2013-08-10 08:01:00,
2013-08-10 04:12:00,67.0,65.0,-100.00,West,260,0.0,0.0,91,0.00,,,-99.99,,2013-08-10 08:12:00,
2013-08-10 04:32:00,67.0,64.0,-100.00,SSW,200,0.0,0.0,90,0.00,,,-99.99,,2013-08-10 08:32:00,
2013-08-10 04:43:00,67.0,64.0,-100.00,East,80,1.0,1.0,91,0.00,,,-99.99,,2013-08-10 08:43:00,
2013-08-10 05:02:00,67.0,64.0,-100.00,ESE,120,0.0,0.0,92,0.00,,,-99.99,,2013-08-10 09:02:00,
2013-08-10 05:12:00,67.0,64.0,-100.00,North,0,0.0,1.0,92,0.00,,,-99.99,,2013-08-10 09:12:00,
2013-08-10 05:22:00,67.0,64.0,-100.00,North,0,0.0,1.0,92,0.00,,,-99.99,,2013-08-10 09:22:00,
2013-08-10 05:32:00,67.0,64.0,-100.00,North,0,0.0,1.0,92,0.00,,,-99.99,,2013-08-10 09:32:00,
2013-08-10 05:43:00,67.0,64.0,-100.00,East,95,0.0,1.0,91,0.00,,,-99.99,,2013-08-10 09:43:00,
2013-08-10 06:22:00,67.0,64.0,-100.00,South,175,0.0,1.0,91,0.00,,,-99.99,,2013-08-10 10:22:00,
2013-08-10 06:33:00,67.0,64.0,-100.00,South,180,0.0,1.0,91,0.00,,,-99.99,,2013-08-10 10:33:00,
2013-08-10 07:43:00,67.0,64.0,-100.00,ENE,60,0.0,1.0,91,0.00,,,-99.99,,2013-08-10 11:43:00,
2013-08-10 08:01:00,67.0,64.0,-100.00,NNE,25,0.0,1.0,91,0.00,,,-99.99,,2013-08-10 12:01:00,
2013-08-10 08:42:00,73.0,65.0,-100.00,WNW,285,0.0,1.0,75,0.00,,,-99.99,,2013-08-10 12:42:00,
2013-08-10 09:11:00,73.0,64.0,-100.00,NE,35,1.0,3.0,74,0.00,,,-99.99,,2013-08-10 13:11:00,
2013-08-10 09:22:00,74.0,65.0,-100.00,ENE,70,1.0,3.0,74,0.00,,,-99.99,,2013-08-10 13:22:00,
2013-08-10 09:43:00,75.0,63.0,-100.00,SE,125,4.0,7.0,66,0.00,,,-99.99,,2013-08-10 13:43:00,
2013-08-10 10:12:00,75.0,64.0,-100.00,SE,130,3.0,6.0,68,0.00,,,-99.99,,2013-08-10 14:12:00,
2013-08-10 10:22:00,75.0,64.0,-100.00,SE,130,3.0,6.0,68,0.00,,,-99.99,,2013-08-10 14:22:00,
2013-08-10 10:33:00,75.0,64.0,-100.00,SE,130,3.0,6.0,68,0.00,,,-99.99,,2013-08-10 14:33:00,
2013-08-10 10:53:00,77.0,63.0,-100.00,SE,135,2.0,6.0,61,0.00,,,-99.99,,2013-08-10 14:53:00,
2013-08-10 11:02:00,77.0,63.0,-100.00,South,190,3.0,6.0,62,0.00,,,-99.99,,2013-08-10 15:02:00,
2013-08-10 11:34:00,78.0,63.0,-100.00,SSE,165,4.0,9.0,60,0.00,,,-99.99,,2013-08-10 15:34:00,
2013-08-10 11:43:00,79.0,62.0,-100.00,WSW,240,1.0,6.0,56,0.00,,,-99.99,,2013-08-10 15:43:00,
2013-08-10 11:52:00,79.0,64.0,-100.00,South,170,3.0,7.0,60,0.00,,,-99.99,,2013-08-10 15:52:00,
2013-08-10 12:01:00,79.0,63.0,-100.00,South,190,2.0,7.0,57,0.00,,,-99.99,,2013-08-10 16:01:00,
2013-08-10 12:11:00,80.0,62.0,-100.00,SSW,195,2.0,8.0,54,0.00,,,-99.99,,2013-08-10 16:11:00,
2013-08-10 12:22:00,80.0,63.0,-100.00,SSW,195,4.0,7.0,57,0.00,,,-99.99,,2013-08-10 16:22:00,
2013-08-10 12:32:00,80.0,63.0,-100.00,South,190,3.0,7.0,56,0.00,,,-99.99,,2013-08-10 16:32:00,
2013-08-10 12:43:00,80.0,62.0,-100.00,South,175,5.0,9.0,52,0.00,,,-99.99,,2013-08-10 16:43:00,
2013-08-10 12:53:00,81.0,63.0,-100.00,South,190,3.0,7.0,54,0.00,,,-99.99,,2013-08-10 16:53:00,
2013-08-10 13:02:00,82.0,64.0,-100.00,South,185,4.0,12.0,54,0.00,,,-99.99,,2013-08-10 17:02:00,
2013-08-10 13:12:00,82.0,62.0,-100.00,NW,315,1.0,7.0,50,0.00,,,-99.99,,2013-08-10 17:12:00,
2013-08-10 13:22:00,81.0,62.0,-100.00,SSW,205,7.0,10.0,53,0.00,,,-99.99,,2013-08-10 17:22:00,
2013-08-10 13:33:00,81.0,62.0,-100.00,SSW,205,7.0,10.0,53,0.00,,,-99.99,,2013-08-10 17:33:00,
2013-08-10 13:43:00,82.0,64.0,-100.00,SSW,195,5.0,9.0,54,0.00,,,-99.99,,2013-08-10 17:43:00,
2013-08-10 13:52:00,81.0,63.0,-100.00,South,190,7.0,9.0,54,0.00,,,-99.99,,2013-08-10 17:52:00,
2013-08-10 14:01:00,82.0,61.0,-100.00,South,185,6.0,9.0,49,0.00,,,-99.99,,2013-08-10 18:01:00,
2013-08-10 14:11:00,81.0,62.0,-100.00,SSW,195,3.0,11.0,52,0.00,,,-99.99,,2013-08-10 18:11:00,
2013-08-10 14:23:00,82.0,63.0,-100.00,SSW,210,7.0,9.0,53,0.00,,,-99.99,,2013-08-10 18:23:00,
2013-08-10 14:32:00,82.0,63.0,-100.00,South,175,4.0,9.0,53,0.00,,,-99.99,,2013-08-10 18:32:00,
2013-08-10 14:44:00,82.0,64.0,-100.00,SSW,210,4.0,12.0,53,0.00,,,-99.99,,2013-08-10 18:44:00,
2013-08-10 14:52:00,82.0,64.0,-100.00,SSW,205,5.0,11.0,55,0.00,,,-99.99,,2013-08-10 18:52:00,
2013-08-10 15:02:00,82.0,64.0,-100.00,SSW,200,6.0,11.0,54,0.00,,,-99.99,,2013-08-10 19:02:00,
2013-08-10 15:11:00,83.0,62.0,-100.00,South,185,6.0,12.0,50,0.00,,,-99.99,,2013-08-10 19:11:00,
2013-08-10 15:22:00,82.0,62.0,-100.00,SW,215,6.0,14.0,51,0.00,,,-99.99,,2013-08-10 19:22:00,
2013-08-10 15:33:00,83.0,63.0,-100.00,South,190,6.0,11.0,51,0.00,,,-99.99,,2013-08-10 19:33:00,
2013-08-10 15:44:00,83.0,63.0,-100.00,South,190,7.0,10.0,51,0.00,,,-99.99,,2013-08-10 19:44:00,
2013-08-10 15:53:00,83.0,62.0,-100.00,SSW,205,7.0,12.0,50,0.00,,,-99.99,,2013-08-10 19:53:00,
2013-08-10 16:02:00,83.0,62.0,-100.00,SSW,205,6.0,9.0,49,0.00,,,-99.99,,2013-08-10 20:02:00,
2013-08-10 16:12:00,84.0,64.0,-100.00,South,185,7.0,9.0,50,0.00,,,-99.99,,2013-08-10 20:12:00,
2013-08-10 16:22:00,84.0,62.0,-100.00,SSW,210,6.0,11.0,47,0.00,,,-99.99,,2013-08-10 20:22:00,
2013-08-10 16:33:00,85.0,63.0,-100.00,WSW,240,4.0,8.0,48,0.00,,,-99.99,,2013-08-10 20:33:00,
2013-08-10 16:43:00,83.0,64.0,-100.00,South,180,6.0,9.0,52,0.00,,,-99.99,,2013-08-10 20:43:00,
2013-08-10 16:53:00,85.0,64.0,-100.00,SSW,200,4.0,9.0,49,0.00,,,-99.99,,2013-08-10 20:53:00,
2013-08-10 17:02:00,85.0,63.0,-100.00,SSW,195,5.0,11.0,47,0.00,,,-99.99,,2013-08-10 21:02:00,
2013-08-10 17:12:00,83.0,64.0,-100.00,SW,230,4.0,11.0,51,0.00,,,-99.99,,2013-08-10 21:12:00,
2013-08-10 17:22:00,84.0,63.0,-100.00,SW,230,6.0,11.0,48,0.00,,,-99.99,,2013-08-10 21:22:00,
2013-08-10 17:32:00,83.0,65.0,-100.00,West,270,2.0,9.0,54,0.00,,,-99.99,,2013-08-10 21:32:00,
2013-08-10 17:42:00,82.0,64.0,-100.00,NNW,335,3.0,5.0,53,0.00,,,-99.99,,2013-08-10 21:42:00,
2013-08-10 17:52:00,78.0,66.0,-100.00,NNW,345,6.0,13.0,67,0.00,,,-99.99,,2013-08-10 21:52:00,
2013-08-10 18:01:00,77.0,67.0,-100.00,North,350,5.0,11.0,72,0.00,,,-99.99,,2013-08-10 22:01:00,
2013-08-10 18:11:00,76.0,67.0,-100.00,NNE,20,5.0,11.0,73,0.00,,,-99.99,,2013-08-10 22:11:00,
2013-08-10 18:21:00,76.0,67.0,-100.00,North,0,3.0,8.0,74,0.00,,,-99.99,,2013-08-10 22:21:00,
2013-08-10 18:32:00,76.0,67.0,-100.00,North,0,4.0,9.0,74,0.00,,,-99.99,,2013-08-10 22:32:00,
2013-08-10 18:43:00,76.0,67.0,-100.00,North,0,3.0,7.0,73,0.00,,,-99.99,,2013-08-10 22:43:00,
2013-08-10 18:52:00,76.0,67.0,-100.00,North,0,4.0,7.0,74,0.00,,,-99.99,,2013-08-10 22:52:00,
2013-08-10 19:02:00,75.0,67.0,-100.00,North,0,4.0,9.0,75,0.00,,,-99.99,,2013-08-10 23:02:00,
2013-08-10 19:12:00,75.0,66.0,-100.00,NNE,20,5.0,10.0,74,0.00,,,-99.99,,2013-08-10 23:12:00,
2013-08-10 19:22:00,75.0,67.0,-100.00,North,10,5.0,9.0,75,0.00,,,-99.99,,2013-08-10 23:22:00,
2013-08-10 19:32:00,74.0,67.0,-100.00,North,0,4.0,6.0,76,0.00,,,-99.99,,2013-08-10 23:32:00,
2013-08-10 19:43:00,74.0,67.0,-100.00,NNE,15,2.0,6.0,76,0.00,,,-99.99,,2013-08-10 23:43:00,
2013-08-10 19:53:00,74.0,67.0,-100.00,NE,50,2.0,6.0,76,0.00,,,-99.99,,2013-08-10 23:53:00,
2013-08-10 20:02:00,74.0,66.0,-100.00,NNE,15,4.0,8.0,77,0.00,,,-99.99,,2013-08-11 00:02:00,
2013-08-10 20:11:00,74.0,66.0,-100.00,NNE,30,4.0,6.0,78,0.00,,,-99.99,,2013-08-11 00:11:00,
2013-08-10 20:22:00,73.0,66.0,-100.00,NNE,30,4.0,6.0,79,0.00,,,-99.99,,2013-08-11 00:22:00,
2013-08-10 20:32:00,73.0,66.0,-100.00,North,10,4.0,7.0,79,0.00,,,-99.99,,2013-08-11 00:32:00,
2013-08-10 20:42:00,73.0,66.0,-100.00,NE,35,3.0,7.0,79,0.00,,,-99.99,,2013-08-11 00:42:00,
2013-08-10 20:52:00,73.0,66.0,-100.00,NE,35,5.0,7.0,79,0.00,,,-99.99,,2013-08-11 00:52:00,
2013-08-10 21:01:00,72.0,65.0,-100.00,NE,45,4.0,7.0,78,0.00,,,-99.99,,2013-08-11 01:01:00,
2013-08-10 21:11:00,72.0,65.0,-100.00,NNE,20,3.0,7.0,79,0.00,,,-99.99,,2013-08-11 01:11:00,
2013-08-10 21:22:00,71.0,65.0,-100.00,NE,50,3.0,6.0,79,0.00,,,-99.99,,2013-08-11 01:22:00,
2013-08-10 21:32:00,71.0,65.0,-100.00,North,10,2.0,4.0,80,0.00,,,-99.99,,2013-08-11 01:32:00,
2013-08-10 21:43:00,71.0,65.0,-100.00,NE,35,2.0,4.0,81,0.00,,,-99.99,,2013-08-11 01:43:00,
2013-08-10 21:53:00,70.0,65.0,-100.00,North,0,2.0,4.0,81,0.00,,,-99.99,,2013-08-11 01:53:00,
2013-08-10 22:02:00,70.0,64.0,-100.00,North,5,2.0,4.0,81,0.00,,,-99.99,,2013-08-11 02:02:00,
2013-08-10 22:11:00,70.0,64.0,-100.00,North,10,3.0,4.0,82,0.00,,,-99.99,,2013-08-11 02:11:00,
2013-08-10 22:22:00,69.0,64.0,-100.00,NE,40,1.0,3.0,83,0.00,,,-99.99,,2013-08-11 02:22:00,
2013-08-10 22:32:00,69.0,64.0,-100.00,NE,40,1.0,3.0,83,0.00,,,-99.99,,2013-08-11 02:32:00,
2013-08-10 22:43:00,69.0,64.0,-100.00,NNE,15,1.0,3.0,84,0.00,,,-99.99,,2013-08-11 02:43:00,
2013-08-10 22:56:00,69.0,64.0,-100.00,North,0,2.0,3.0,85,0.00,,,-99.99,,2013-08-11 02:56:00,
2013-08-10 23:06:00,69.0,64.0,-100.00,North,10,1.0,3.0,85,0.00,,,-99.99,,2013-08-11 03:06:00,
2013-08-10 23:18:00,68.0,64.0,-100.00,NNE,25,1.0,4.0,85,0.00,,,-99.99,,2013-08-11 03:18:00,
2013-08-10 23:27:00,68.0,64.0,-100.00,NNE,25,1.0,4.0,85,0.00,,,-99.99,,2013-08-11 03:27:00,
2013-08-10 23:35:00,68.0,64.0,-100.00,North,10,1.0,3.0,87,0.00,,,-99.99,,2013-08-11 03:35:00,
2013-08-10 23:44:00,68.0,64.0,-100.00,NNE,20,1.0,3.0,87,0.00,,,-99.99,,2013-08-11 03:44:00,
2013-08-10 23:54:00,67.0,64.0,-100.00,North,5,1.0,3.0,88,0.00,,,-99.99,,2013-08-11 03:54:00,